Location: Kuala Lumpur International
(3.1298°N, 101.5524°E)
Time: 16:47:56
(UTC+00:00)

Cosmos 1943 - Pass Details

Date: 05 August 2024
Orbit: 831 x 849 km, 71.0° (Epoch: 19 September)

Event Time Altitude Azimuth Distance (km) Brightness Sun altitude
Exits shadow 22:07:41 10° 201° (SSW) 2,456 5.2 -16.3°
Reaches altitude 10° 22:07:43 10° 201° (SSW) 2,443 5.2 -16.3°
Maximum altitude 22:13:18 73° 285° (WNW) 869 3.1 -14.9°
Drops below altitude 10° 22:18:51 10° 10° (N) 2,428 6.0 -13.6°
Sets 22:21:17 0° 12° (NNE) 3,359 6.8 -13.0°
